Back to catalog

STARLINK-5417

AliveCommunicationsVLEO
NORAD 54805·PAYLOAD·🇺🇸 United States

Launched Dec 17, 2022 from Cape Canaveral Space Force Station

Loading…

Next Passes (next 24 hours)

TLE

FreshSource: CelesTrak SupGP

Epoch: Sep 14, 2026, 20:42 UTC

1 54805C 22175AZ  26257.86298611  .00044621  00000+0  28619-2 0  2573
2 54805  53.1575 259.8720 0001254  70.6185 260.7825 15.07988084    13

Track STARLINK-5417 in real time with AllMySat

Download on the App Store